This is the latest recevied weather packets stored in our database for station/object FW7644. If no packets are shown the sender has not sent any weather packets the latest 10 day(s).
| Time | Temp. | Humidity | Pressure | Rain* | Wind** | Luminosity | Snow |
|---|---|---|---|---|---|---|---|
| 1777906249 | 16.67° C | 90% | 1023.2 hPa | 0 mm | - | - | - |
| 1777905947 | 16.67° C | 92% | 1023.3 hPa | 0 mm | - | - | - |
| 1777905645 | 16.67° C | 91% | 1023.4 hPa | 0 mm | - | - | - |
| 1777905343 | 16.67° C | 92% | 1023.4 hPa | 0.25 mm | - | - | - |
| 1777905042 | 16.67° C | 92% | 1023.3 hPa | 0.25 mm | - | - | - |
| 1777904740 | 16.11° C | 94% | 1023.4 hPa | 0.25 mm | - | - | - |
| 1777904438 | 16.11° C | 94% | 1023.4 hPa | 0.25 mm | - | - | - |
| 1777904136 | 16.11° C | 95% | 1023.5 hPa | 0.25 mm | - | - | - |
| 1777903834 | 16.11° C | 94% | 1023.6 hPa | 0.25 mm | - | - | - |
| 1777903532 | 16.11° C | 95% | 1023.7 hPa | 0.25 mm | - | - | - |
| 1777903230 | 16.11° C | 94% | 1023.8 hPa | 0.25 mm | - | - | - |
| 1777902928 | 16.11° C | 94% | 1023.7 hPa | 0.25 mm | - | - | - |
| 1777902626 | 16.11° C | 94% | 1023.7 hPa | 0.25 mm | - | - | - |
| 1777902324 | 16.11° C | 94% | 1023.6 hPa | 0.25 mm | - | - | - |
| 1777902022 | 16.11° C | 94% | 1023.6 hPa | 0.25 mm | - | - | - |
| 1777901720 | 16.11° C | 93% | 1023.6 hPa | 0.25 mm | - | - | - |
| 1777901418 | 16.67° C | 92% | 1023.6 hPa | 0 mm | - | - | - |
| 1777901116 | 15.56° C | 94% | 1023.6 hPa | 0 mm | - | - | - |
| 1777900814 | 16.11° C | 93% | 1023.6 hPa | 0 mm | - | - | - |
| 1777900512 | 16.11° C | 94% | 1023.4 hPa | 0 mm | - | - | - |
| 1777900210 | 16.11° C | 94% | 1023.2 hPa | 0 mm | - | - | - |
| 1777899908 | 16.67° C | 96% | 1023.1 hPa | 0.25 mm | - | - | - |
| 1777899605 | 16.11° C | 99% | 1022.9 hPa | 0.25 mm | - | - | - |
| 1777899303 | 15.56° C | 99% | 1022.7 hPa | 0.25 mm | - | - | - |
| 1777899001 | 15° C | 99% | 1022.8 hPa | 0.25 mm | - | - | - |
* Rain latest hour (hover to see other rain measurements)
** Current wind speed in m/s (hover to see current wind gust speed)